#�ϑ�����,���ϕ���,���ϕ���,�ő啗��,�ő啗����������,�ő�u�ԕ���,�ő�u�ԕ�����������
#(�N����),(m/s)   ,(16����),(m/s)   ,(16����)        ,(m/s)       ,(16����)            
2013/11/26 0:01,0.7,15,0.7,15,1.8,15
2013/11/26 0:02,0.7,15,0.7,15,1.3,14
2013/11/26 0:03,0.8,15,0.8,15,0.8,12
2013/11/26 0:04,0.7,15,0.8,15,0.5,13
2013/11/26 0:05,0.7,14,0.7,15,0.1,8
2013/11/26 0:06,0.6,13,0.7,15,0,8
2013/11/26 0:07,0.6,12,0.6,15,0.4,9
2013/11/26 0:08,0.5,11,0.5,15,0.1,9
2013/11/26 0:09,0.4,10,0.5,15,0,9
2013/11/26 0:10,0.3,9,0.4,15,0.1,9
2013/11/26 0:11,0.1,9,0.3,15,0.4,15
2013/11/26 0:12,0.1,9,0.1,15,0.5,16
2013/11/26 0:13,0.1,9,0.1,15,0.6,16
2013/11/26 0:14,0.1,10,0.1,15,0.8,15
2013/11/26 0:15,0.2,11,0.2,14,1.1,15
2013/11/26 0:16,0.3,13,0.3,13,1.1,15
2013/11/26 0:17,0.3,14,0.3,12,0.8,15
2013/11/26 0:18,0.3,15,0.3,11,0.3,15
2013/11/26 0:19,0.3,15,0.3,10,0,15
2013/11/26 0:20,0.3,15,0.3,9,0.4,10
2013/11/26 0:21,0.3,14,0.3,12,0.6,10
2013/11/26 0:22,0.4,14,0.4,14,0.6,10
2013/11/26 0:23,0.3,13,0.4,14,0.1,9
2013/11/26 0:24,0.3,12,0.3,14,0,9
2013/11/26 0:25,0.2,12,0.3,14,0.3,16
2013/11/26 0:26,0.1,12,0.2,14,0.5,16
2013/11/26 0:27,0.2,12,0.2,14,0.6,16
2013/11/26 0:28,0.2,12,0.2,14,0.9,16
2013/11/26 0:29,0.2,12,0.2,14,0.8,16
2013/11/26 0:30,0.2,13,0.2,14,0.4,15
2013/11/26 0:31,0.2,14,0.2,14,0.4,15
2013/11/26 0:32,0.2,15,0.2,14,0.5,7
2013/11/26 0:33,0.2,15,0.2,13,0.8,7
2013/11/26 0:34,0.2,15,0.2,12,0.4,8
2013/11/26 0:35,0.2,15,0.2,12,0,14
2013/11/26 0:36,0.2,15,0.2,12,0,14
2013/11/26 0:37,0.2,15,0.2,12,0.1,14
2013/11/26 0:38,0.1,15,0.2,12,0.3,14
2013/11/26 0:39,0.1,15,0.1,12,0.5,15
2013/11/26 0:40,0.2,15,0.2,13,0.8,15
2013/11/26 0:41,0.2,14,0.2,14,1,15
2013/11/26 0:42,0.3,14,0.3,14,1.1,15
2013/11/26 0:43,0.3,14,0.3,14,1,15
2013/11/26 0:44,0.3,14,0.3,14,0.4,14
2013/11/26 0:45,0.3,14,0.3,14,0,12
2013/11/26 0:46,0.3,14,0.3,14,0.1,14
2013/11/26 0:47,0.3,14,0.3,14,0,14
2013/11/26 0:48,0.3,14,0.3,14,0.1,15
2013/11/26 0:49,0.3,14,0.3,14,0.4,15
2013/11/26 0:50,0.3,14,0.3,14,0.8,14
2013/11/26 0:51,0.3,14,0.3,14,1.5,15
2013/11/26 0:52,0.3,14,0.3,14,1.4,14
2013/11/26 0:53,0.4,14,0.4,14,1.5,14
2013/11/26 0:54,0.5,14,0.5,14,1.8,13
2013/11/26 0:55,0.6,14,0.6,14,1.8,12
2013/11/26 0:56,0.7,14,0.7,14,1.5,12
2013/11/26 0:57,0.8,13,0.8,14,1.5,11
2013/11/26 0:58,0.8,13,0.8,14,0.5,10
2013/11/26 0:59,0.8,12,0.8,14,1.1,8
2013/11/26 1:00,0.8,12,0.8,14,1,8
2013/11/26 1:01,0.8,12,0.8,14,1.3,13
2013/11/26 1:02,0.8,11,0.8,14,2.7,14
2013/11/26 1:03,0.8,12,0.8,14,1.9,12
2013/11/26 1:04,0.7,12,0.8,14,0.6,12
2013/11/26 1:05,0.7,11,0.7,14,1.5,12
2013/11/26 1:06,0.7,12,0.7,14,1.6,12
2013/11/26 1:07,0.7,12,0.7,13,1.6,12
2013/11/26 1:08,0.8,12,0.8,13,1.6,9
2013/11/26 1:09,0.9,12,0.9,12,1.9,9
2013/11/26 1:10,1,12,1,12,2,12
2013/11/26 1:11,1.1,12,1.1,12,1.9,11
2013/11/26 1:12,1.1,12,1.1,12,2.1,12
2013/11/26 1:13,1.1,12,1.1,12,1.9,12
2013/11/26 1:14,1.2,11,1.2,12,2,11
2013/11/26 1:15,1.3,12,1.3,12,6.3,15
2013/11/26 1:16,1.4,12,1.4,12,5.7,13
2013/11/26 1:17,1.4,11,1.4,12,2.1,10
2013/11/26 1:18,1.4,11,1.4,12,2.6,10
2013/11/26 1:19,1.5,11,1.5,11,3.1,10
2013/11/26 1:20,1.6,11,1.6,11,3.1,8
2013/11/26 1:21,1.6,11,1.7,11,2.2,9
2013/11/26 1:22,1.5,10,1.6,11,1.6,10
2013/11/26 1:23,1.5,10,1.5,11,0.8,12
2013/11/26 1:24,1.4,11,1.5,11,1.1,15
2013/11/26 1:25,1.3,11,1.4,11,1.6,14
2013/11/26 1:26,1.2,11,1.2,11,2.5,16
2013/11/26 1:27,1.2,11,1.2,11,3.6,2
2013/11/26 1:28,1.2,11,1.3,11,2.4,1
2013/11/26 1:29,1.1,11,1.2,11,2.1,9
2013/11/26 1:30,1.2,12,1.2,11,5.8,14
2013/11/26 1:31,1.3,13,1.3,11,4.8,14
2013/11/26 1:32,1.4,13,1.4,10,4.3,13
2013/11/26 1:33,1.7,13,1.7,13,5.4,12
2013/11/26 1:34,1.9,13,1.9,13,3.9,12
2013/11/26 1:35,2,12,2,13,3.1,10
2013/11/26 1:36,2,12,2,13,3.8,11
2013/11/26 1:37,2.1,12,2.1,12,4.4,11
2013/11/26 1:38,2.2,11,2.2,11,3.6,9
2013/11/26 1:39,2.3,11,2.3,11,3.8,8
2013/11/26 1:40,2.1,11,2.3,11,1.5,9
2013/11/26 1:41,2,11,2,11,2.7,11
2013/11/26 1:42,1.9,11,2,11,1.8,13
2013/11/26 1:43,1.7,11,1.9,11,2.5,12
2013/11/26 1:44,1.6,11,1.7,11,2.2,11
2013/11/26 1:45,1.7,11,1.7,11,2.6,11
2013/11/26 1:46,1.7,11,1.7,11,2.1,12
2013/11/26 1:47,1.6,11,1.7,11,2,12
2013/11/26 1:48,1.6,11,1.6,11,2.5,9
2013/11/26 1:49,1.5,11,1.5,11,3.1,10
2013/11/26 1:50,1.6,11,1.6,11,3.3,10
2013/11/26 1:51,1.5,10,1.6,11,3.3,9
2013/11/26 1:52,1.6,10,1.6,11,2.7,9
2013/11/26 1:53,1.5,10,1.6,11,1.9,8
2013/11/26 1:54,1.5,10,1.5,11,1.6,10
2013/11/26 1:55,1.3,10,1.4,11,1.3,12
2013/11/26 1:56,1.3,10,1.3,11,0.8,12
2013/11/26 1:57,1.3,10,1.3,11,2.2,11
2013/11/26 1:58,1.3,10,1.3,11,2.7,10
2013/11/26 1:59,1.3,10,1.4,11,2.5,9
2013/11/26 2:00,1.3,10,1.3,11,1.9,11
2013/11/26 2:01,1.3,11,1.4,10,1.8,12
2013/11/26 2:02,1.2,11,1.3,10,1.5,11
2013/11/26 2:03,1.2,11,1.2,10,2.2,13
2013/11/26 2:04,1.2,11,1.2,10,1.5,9
2013/11/26 2:05,1.2,11,1.2,10,1.9,10
2013/11/26 2:06,1.3,11,1.3,10,2.2,10
2013/11/26 2:07,1.4,11,1.4,10,3.5,10
2013/11/26 2:08,1.3,11,1.4,10,2.5,11
2013/11/26 2:09,1.3,11,1.3,10,2.2,9
2013/11/26 2:10,1.3,11,1.3,10,2.4,10
2013/11/26 2:11,1.2,10,1.3,11,1.5,8
2013/11/26 2:12,1.2,10,1.2,11,2,10
2013/11/26 2:13,1.3,10,1.3,11,2,10
2013/11/26 2:14,1.3,10,1.3,11,2.2,9
2013/11/26 2:15,1.3,10,1.3,11,1,15
2013/11/26 2:16,1.3,10,1.3,11,2.7,9
2013/11/26 2:17,1.2,10,1.3,11,1.9,8
2013/11/26 2:18,1.2,11,1.2,11,2.2,12
2013/11/26 2:19,1.2,11,1.2,11,2.7,8
2013/11/26 2:20,1.2,11,1.2,10,2,10
2013/11/26 2:21,1.3,11,1.3,10,2.4,10
2013/11/26 2:22,1.3,11,1.3,10,2.1,11
2013/11/26 2:23,1.4,11,1.4,11,2.7,10
2013/11/26 2:24,1.4,11,1.4,11,2.9,9
2013/11/26 2:25,1.5,11,1.5,11,2.4,9
2013/11/26 2:26,1.5,11,1.5,11,2.7,9
2013/11/26 2:27,1.6,10,1.6,10,2.6,10
2013/11/26 2:28,1.6,10,1.6,10,2.7,10
2013/11/26 2:29,1.6,10,1.6,10,2.2,9
2013/11/26 2:30,1.6,10,1.6,10,2,10
2013/11/26 2:31,1.5,11,1.6,10,1.1,10
2013/11/26 2:32,1.4,11,1.5,10,1.1,12
2013/11/26 2:33,1.3,11,1.4,10,1,13
2013/11/26 2:34,1.2,11,1.3,10,1.5,13
2013/11/26 2:35,1.2,11,1.2,10,1.4,13
2013/11/26 2:36,1.1,12,1.1,10,1.9,12
2013/11/26 2:37,1.2,12,1.2,10,3.6,11
2013/11/26 2:38,1.2,11,1.2,10,3.5,9
2013/11/26 2:39,1.4,12,1.4,10,4.2,11
2013/11/26 2:40,1.3,12,1.4,10,2.7,11
2013/11/26 2:41,1.4,11,1.4,11,3.6,11
2013/11/26 2:42,1.6,11,1.6,11,4.1,10
2013/11/26 2:43,1.8,11,1.8,11,4.8,10
2013/11/26 2:44,2,11,2,11,4.2,10
2013/11/26 2:45,2.1,10,2.1,11,3.2,10
2013/11/26 2:46,2.3,10,2.3,10,3,9
2013/11/26 2:47,2.1,10,2.3,10,2.2,8
2013/11/26 2:48,2,10,2.1,10,2.2,9
2013/11/26 2:49,1.9,10,2,10,2.2,11
2013/11/26 2:50,2,10,2,10,2.6,12
2013/11/26 2:51,2,10,2,10,2.4,12
2013/11/26 2:52,1.9,10,2,10,1.8,12
2013/11/26 2:53,1.7,10,1.9,10,1.8,12
2013/11/26 2:54,1.6,11,1.7,10,1.4,13
2013/11/26 2:55,1.5,11,1.6,10,1.4,13
2013/11/26 2:56,1.4,11,1.5,10,2,12
2013/11/26 2:57,1.4,11,1.4,10,2,11
2013/11/26 2:58,1.4,11,1.4,10,2.5,10
2013/11/26 2:59,1.4,11,1.4,10,2.5,9
2013/11/26 3:00,1.4,12,1.4,10,2.2,13
2013/11/26 3:01,1.3,12,1.4,10,1.6,11
2013/11/26 3:02,1.3,11,1.3,10,2,11
2013/11/26 3:03,1.3,11,1.3,10,1.9,9
2013/11/26 3:04,1.3,11,1.3,11,1.6,9
2013/11/26 3:05,1.3,11,1.3,11,2,11
2013/11/26 3:06,1.3,11,1.3,11,2,11
2013/11/26 3:07,1.3,11,1.3,11,1.8,12
2013/11/26 3:08,1.2,11,1.3,11,1,13
2013/11/26 3:09,1.1,11,1.2,12,1.4,12
2013/11/26 3:10,1,11,1.1,12,1.3,11
2013/11/26 3:11,1,11,1,12,1.6,11
2013/11/26 3:12,1,11,1,11,2.1,11
2013/11/26 3:13,1,11,1,11,1.5,12
2013/11/26 3:14,1,11,1,11,1.4,12
2013/11/26 3:15,1,12,1,11,1.5,15
2013/11/26 3:16,0.9,12,1,11,1.1,15
2013/11/26 3:17,0.9,12,0.9,11,1,14
2013/11/26 3:18,0.9,12,0.9,11,1,12
2013/11/26 3:19,0.8,12,0.9,11,0.6,16
2013/11/26 3:20,0.8,13,0.8,11,1.9,13
2013/11/26 3:21,0.8,13,0.8,11,1.3,13
2013/11/26 3:22,0.8,13,0.8,11,1.5,14
2013/11/26 3:23,0.7,13,0.8,11,1.3,11
2013/11/26 3:24,0.8,13,0.8,11,1.9,13
2013/11/26 3:25,0.8,13,0.8,12,1.8,13
2013/11/26 3:26,0.9,13,0.9,12,1.9,12
2013/11/26 3:27,0.9,13,0.9,12,1.9,12
2013/11/26 3:28,0.9,12,0.9,12,1,11
2013/11/26 3:29,0.9,12,0.9,13,1.3,12
2013/11/26 3:30,0.8,12,0.9,13,0.9,8
2013/11/26 3:31,0.8,11,0.9,13,1.1,11
2013/11/26 3:32,0.8,11,0.8,13,1,13
2013/11/26 3:33,0.8,11,0.8,13,0.6,14
2013/11/26 3:34,0.7,11,0.8,13,1,13
2013/11/26 3:35,0.6,11,0.7,13,0.6,12
2013/11/26 3:36,0.6,11,0.6,13,0.5,12
2013/11/26 3:37,0.5,11,0.5,13,0.1,13
2013/11/26 3:38,0.4,12,0.5,12,0.1,14
2013/11/26 3:39,0.3,12,0.4,12,0.6,10
2013/11/26 3:40,0.3,12,0.3,12,0.8,10
2013/11/26 3:41,0.3,12,0.3,11,0.4,9
2013/11/26 3:42,0.2,12,0.3,11,0.4,6
2013/11/26 3:43,0.3,11,0.3,11,1,8
2013/11/26 3:44,0.2,10,0.3,11,0.9,8
2013/11/26 3:45,0.2,9,0.2,11,0.6,5
2013/11/26 3:46,0.3,9,0.3,11,0.8,7
2013/11/26 3:47,0.3,8,0.3,11,0.6,8
2013/11/26 3:48,0.3,8,0.3,12,1.4,16
2013/11/26 3:49,0.4,7,0.4,8,1.4,15
2013/11/26 3:50,0.4,6,0.4,8,1,16
2013/11/26 3:51,0.5,5,0.5,6,1,3
2013/11/26 3:52,0.6,5,0.6,5,1,4
2013/11/26 3:53,0.6,3,0.6,5,1.5,16
2013/11/26 3:54,0.6,2,0.6,5,1.9,15
2013/11/26 3:55,0.7,2,0.7,2,1.8,16
2013/11/26 3:56,0.7,2,0.7,2,0.9,9
2013/11/26 3:57,0.7,1,0.7,2,1.6,12
2013/11/26 3:58,0.7,1,0.8,1,1.6,8
2013/11/26 3:59,0.8,1,0.8,1,3.1,10
2013/11/26 4:00,1,16,1,1,3.7,9
2013/11/26 4:01,1,9,1,1,1.6,7
2013/11/26 4:02,1.1,9,1.1,9,3,8
2013/11/26 4:03,1.1,9,1.1,9,2.4,9
2013/11/26 4:04,1.2,9,1.2,9,2.4,10
2013/11/26 4:05,1.1,10,1.1,9,1.3,10
2013/11/26 4:06,1.2,10,1.2,9,0.9,11
2013/11/26 4:07,1.1,9,1.2,9,0.9,12
2013/11/26 4:08,1.1,9,1.1,9,1.1,6
2013/11/26 4:09,1.1,9,1.1,9,1.5,7
2013/11/26 4:10,1,8,1.1,9,1.5,7
2013/11/26 4:11,0.9,9,1,9,1.3,8
2013/11/26 4:12,0.8,9,0.9,9,0.3,16
2013/11/26 4:13,0.7,9,0.8,9,0.3,1
2013/11/26 4:14,0.5,9,0.6,10,0.3,15
2013/11/26 4:15,0.5,9,0.5,10,0.1,16
2013/11/26 4:16,0.5,6,0.5,10,1.1,4
2013/11/26 4:17,0.5,5,0.5,9,1.3,5
2013/11/26 4:18,0.5,5,0.5,9,0.9,14
2013/11/26 4:19,0.4,3,0.5,9,0.6,8
2013/11/26 4:20,0.4,16,0.4,8,1.9,16
2013/11/26 4:21,0.5,16,0.5,9,1.8,16
2013/11/26 4:22,0.6,16,0.6,9,1.6,15
2013/11/26 4:23,0.6,16,0.6,9,1.4,15
2013/11/26 4:24,0.7,16,0.7,16,0.9,5
2013/11/26 4:25,0.8,16,0.8,16,1.8,8
2013/11/26 4:26,0.8,14,0.8,16,1.3,9
2013/11/26 4:27,0.7,13,0.8,16,0.6,11
2013/11/26 4:28,0.7,14,0.7,16,0.6,15
2013/11/26 4:29,0.8,14,0.8,16,1.9,15
2013/11/26 4:30,0.8,14,0.8,16,1.4,15
2013/11/26 4:31,0.7,14,0.8,16,1.3,15
2013/11/26 4:32,0.7,13,0.7,16,1.3,12
2013/11/26 4:33,0.7,12,0.7,16,2,9
2013/11/26 4:34,0.7,12,0.8,16,1.8,9
2013/11/26 4:35,0.7,14,0.7,16,0.6,1
2013/11/26 4:36,0.7,14,0.7,14,1.9,9
2013/11/26 4:37,0.8,14,0.8,14,2,10
2013/11/26 4:38,0.9,12,0.9,13,2.2,7
2013/11/26 4:39,0.8,12,0.9,13,1.6,15
2013/11/26 4:40,0.8,11,0.8,13,2.5,11
2013/11/26 4:41,0.9,11,0.9,13,2.4,11
2013/11/26 4:42,1.2,12,1.2,12,5.6,15
2013/11/26 4:43,1.4,12,1.4,12,4.7,10
2013/11/26 4:44,1.5,12,1.5,12,3.5,10
2013/11/26 4:45,1.6,12,1.6,12,2.9,14
2013/11/26 4:46,1.8,12,1.8,12,2.7,12
2013/11/26 4:47,1.8,12,1.8,12,1.8,13
2013/11/26 4:48,1.8,13,1.8,12,2.9,11
2013/11/26 4:49,1.9,12,1.9,13,4.4,11
2013/11/26 4:50,2,12,2,12,3.6,13
2013/11/26 4:51,2,12,2,12,2.1,10
2013/11/26 4:52,1.8,12,2,12,3.2,10
2013/11/26 4:53,1.7,12,1.8,12,2.7,9
2013/11/26 4:54,1.6,12,1.7,12,2.1,12
2013/11/26 4:55,1.7,12,1.7,12,3.8,12
2013/11/26 4:56,1.6,11,1.7,12,2.5,11
2013/11/26 4:57,1.7,11,1.7,12,2.9,11
2013/11/26 4:58,1.7,11,1.7,12,2.2,12
2013/11/26 4:59,1.7,11,1.7,12,2.6,11
2013/11/26 5:00,1.6,11,1.7,12,2.9,10
2013/11/26 5:01,1.8,11,1.8,12,3.2,10
2013/11/26 5:02,1.8,11,1.8,12,3,10
2013/11/26 5:03,1.8,11,1.8,11,1.8,9
2013/11/26 5:04,1.8,11,1.8,11,2,10
2013/11/26 5:05,1.7,11,1.8,11,2.5,10
2013/11/26 5:06,1.6,11,1.7,11,2.1,9
2013/11/26 5:07,1.6,11,1.6,11,1.8,11
2013/11/26 5:08,1.6,10,1.6,11,2.2,10
2013/11/26 5:09,1.5,11,1.6,11,1.5,11
2013/11/26 5:10,1.4,11,1.5,11,1.1,12
2013/11/26 5:11,1.3,11,1.4,11,1.4,11
2013/11/26 5:12,1.2,11,1.3,11,1.6,11
2013/11/26 5:13,1.2,11,1.2,11,1.4,10
2013/11/26 5:14,1.2,11,1.2,11,2.1,9
2013/11/26 5:15,1.2,11,1.2,11,1.6,11
2013/11/26 5:16,1.2,11,1.2,11,1.8,10
2013/11/26 5:17,1.3,11,1.3,11,2.2,10
2013/11/26 5:18,1.3,11,1.3,10,2.2,10
2013/11/26 5:19,1.3,11,1.3,11,2.1,12
2013/11/26 5:20,1.3,11,1.3,11,1.6,11
2013/11/26 5:21,1.3,11,1.3,11,1.9,9
2013/11/26 5:22,1.3,11,1.3,11,2.1,8
2013/11/26 5:23,1.3,11,1.3,11,2,9
2013/11/26 5:24,1.3,11,1.3,11,1.8,11
2013/11/26 5:25,1.3,11,1.3,11,1.6,11
2013/11/26 5:26,1.3,11,1.3,11,1.6,11
2013/11/26 5:27,1.2,11,1.3,11,2.1,11
2013/11/26 5:28,1.2,11,1.2,11,1.6,11
2013/11/26 5:29,1.2,11,1.2,11,1.8,10
2013/11/26 5:30,1.3,11,1.3,11,2.4,12
2013/11/26 5:31,1.3,11,1.3,11,1.6,10
2013/11/26 5:32,1.3,11,1.3,11,1.5,12
2013/11/26 5:33,1.3,11,1.3,11,1.3,12
2013/11/26 5:34,1.2,11,1.3,11,1.4,15
2013/11/26 5:35,1.3,11,1.3,11,1.6,14
2013/11/26 5:36,1.2,11,1.2,11,1.1,11
2013/11/26 5:37,1.2,11,1.2,11,2.2,10
2013/11/26 5:38,1.3,12,1.3,11,2.2,10
2013/11/26 5:39,1.2,11,1.3,11,2.1,10
2013/11/26 5:40,1.2,11,1.2,11,2.1,10
2013/11/26 5:41,1.2,11,1.3,11,2.1,12
2013/11/26 5:42,1.2,12,1.2,11,1.6,15
2013/11/26 5:43,1.1,12,1.2,11,0.8,12
2013/11/26 5:44,1.2,12,1.2,11,1.3,11
2013/11/26 5:45,1.2,11,1.2,12,1.4,11
2013/11/26 5:46,1.2,11,1.2,12,1.3,11
2013/11/26 5:47,1.1,11,1.2,12,2,10
2013/11/26 5:48,1.1,11,1.1,12,1.9,12
2013/11/26 5:49,1.1,12,1.1,11,2,12
2013/11/26 5:50,1.2,12,1.2,11,2.9,12
2013/11/26 5:51,1.2,11,1.2,11,2.5,10
2013/11/26 5:52,1.3,11,1.3,11,2.9,10
2013/11/26 5:53,1.4,11,1.4,11,3.1,10
2013/11/26 5:54,1.5,11,1.5,11,1.8,10
2013/11/26 5:55,1.5,11,1.5,11,2.4,12
2013/11/26 5:56,1.5,11,1.5,11,2.2,12
2013/11/26 5:57,1.5,11,1.5,11,1.9,12
2013/11/26 5:58,1.4,11,1.5,11,2.4,11
2013/11/26 5:59,1.4,11,1.4,11,1.9,11
2013/11/26 6:00,1.4,11,1.5,11,3.1,10
2013/11/26 6:01,1.5,11,1.5,11,3,11
2013/11/26 6:02,1.5,12,1.5,11,2.1,14
2013/11/26 6:03,1.4,12,1.5,11,1.4,12
2013/11/26 6:04,1.3,12,1.4,11,1.6,15
2013/11/26 6:05,1.3,12,1.3,11,1,13
2013/11/26 6:06,1.3,12,1.3,11,2.6,11
2013/11/26 6:07,1.4,12,1.4,11,2.1,11
2013/11/26 6:08,1.3,12,1.4,11,1.5,11
2013/11/26 6:09,1.3,12,1.3,11,1,14
2013/11/26 6:10,1.1,13,1.3,11,1.5,12
2013/11/26 6:11,1,13,1.1,11,2,12
2013/11/26 6:12,0.9,12,1,12,0.5,11
2013/11/26 6:13,0.8,12,0.9,12,0.5,12
2013/11/26 6:14,0.8,12,0.8,12,1.5,9
2013/11/26 6:15,0.9,11,0.9,12,2,11
2013/11/26 6:16,0.9,11,0.9,12,2.1,11
2013/11/26 6:17,0.9,11,0.9,12,2.2,11
2013/11/26 6:18,1,11,1,12,2.7,10
2013/11/26 6:19,1.1,11,1.1,12,1.8,11
2013/11/26 6:20,1.1,10,1.2,11,1.8,11
2013/11/26 6:21,1.1,10,1.1,11,1.1,9
2013/11/26 6:22,1.1,10,1.1,11,1.1,11
2013/11/26 6:23,1.2,10,1.2,11,1.6,9
2013/11/26 6:24,1.3,10,1.3,10,1.4,10
2013/11/26 6:25,1.2,10,1.2,10,0.9,9
2013/11/26 6:26,1.1,10,1.2,10,1,12
2013/11/26 6:27,1,10,1.1,10,1.1,12
2013/11/26 6:28,0.9,10,1,10,1.1,9
2013/11/26 6:29,0.8,10,0.9,10,1.6,9
2013/11/26 6:30,0.8,10,0.8,10,1.8,9
2013/11/26 6:31,0.9,10,0.9,10,1.6,10
2013/11/26 6:32,1,10,1,10,1.8,10
2013/11/26 6:33,1,10,1,10,1.8,10
2013/11/26 6:34,1.1,10,1.1,10,1.8,10
2013/11/26 6:35,1.2,10,1.2,10,1.9,10
2013/11/26 6:36,1.3,10,1.3,10,1.9,10
2013/11/26 6:37,1.3,10,1.3,10,2,11
2013/11/26 6:38,1.4,10,1.4,10,2.5,11
2013/11/26 6:39,1.5,10,1.5,10,2.4,12
2013/11/26 6:40,1.6,10,1.6,10,2,11
2013/11/26 6:41,1.6,11,1.6,10,1.9,12
2013/11/26 6:42,1.6,11,1.6,10,2,11
2013/11/26 6:43,1.6,11,1.6,10,2,11
2013/11/26 6:44,1.6,11,1.6,10,1.9,11
2013/11/26 6:45,1.6,11,1.6,10,2.1,12
2013/11/26 6:46,1.6,11,1.6,10,2.2,11
2013/11/26 6:47,1.7,11,1.7,11,2,11
2013/11/26 6:48,1.7,11,1.7,11,2.2,11
2013/11/26 6:49,1.7,11,1.7,11,2,11
2013/11/26 6:50,1.7,11,1.7,11,2.4,12
2013/11/26 6:51,1.8,11,1.8,11,2.5,11
2013/11/26 6:52,1.8,11,1.8,11,2.4,11
2013/11/26 6:53,1.8,11,1.8,11,2.5,12
2013/11/26 6:54,1.9,11,1.9,11,2.5,11
2013/11/26 6:55,1.8,11,1.9,11,2.1,11
2013/11/26 6:56,1.8,11,1.8,11,1.9,12
2013/11/26 6:57,1.7,11,1.7,11,1.8,12
2013/11/26 6:58,1.7,12,1.7,11,2,12
2013/11/26 6:59,1.6,12,1.7,11,1.8,13
2013/11/26 7:00,1.6,12,1.6,11,1.9,12
2013/11/26 7:01,1.6,12,1.6,11,2.2,12
2013/11/26 7:02,1.6,12,1.6,11,2,12
2013/11/26 7:03,1.5,12,1.6,11,2,11
2013/11/26 7:04,1.5,12,1.5,11,1.8,12
2013/11/26 7:05,1.5,12,1.5,11,1.8,11
2013/11/26 7:06,1.4,12,1.5,11,1.6,11
2013/11/26 7:07,1.4,12,1.4,11,1.3,12
2013/11/26 7:08,1.4,12,1.4,12,1.8,10
2013/11/26 7:09,1.4,11,1.4,12,2.1,10
2013/11/26 7:10,1.4,11,1.4,12,2,10
2013/11/26 7:11,1.4,11,1.4,12,2.2,10
2013/11/26 7:12,1.4,11,1.4,12,1.6,9
2013/11/26 7:13,1.3,11,1.4,12,1.5,10
2013/11/26 7:14,1.3,10,1.3,12,1.5,11
2013/11/26 7:15,1.2,10,1.2,12,1.4,12
2013/11/26 7:16,1.2,10,1.2,12,1.5,10
2013/11/26 7:17,1.3,10,1.3,12,1.9,9
2013/11/26 7:18,1.2,10,1.3,12,1.9,9
2013/11/26 7:19,1.2,10,1.2,11,1.5,9
2013/11/26 7:20,1.2,10,1.2,11,1.8,9
2013/11/26 7:21,1.2,10,1.2,11,1.5,10
2013/11/26 7:22,1.2,10,1.2,11,1.9,10
2013/11/26 7:23,1.2,10,1.2,11,1.3,9
2013/11/26 7:24,1.1,9,1.2,10,1.1,9
2013/11/26 7:25,1.1,10,1.1,10,1.4,11
2013/11/26 7:26,1.1,10,1.1,10,1.5,12
2013/11/26 7:27,1.2,10,1.2,10,2.2,11
2013/11/26 7:28,1.2,10,1.2,10,1.6,10
2013/11/26 7:29,1.1,10,1.2,10,1.3,14
2013/11/26 7:30,1.1,10,1.1,10,1.5,11
2013/11/26 7:31,1,10,1.1,10,1.3,9
2013/11/26 7:32,1,10,1,10,1.4,9
2013/11/26 7:33,1,10,1,9,1.6,10
2013/11/26 7:34,1,10,1,10,1.3,11
2013/11/26 7:35,1,11,1,10,0.9,1
2013/11/26 7:36,1,11,1,10,2,13
2013/11/26 7:37,0.9,11,1,10,2.1,11
2013/11/26 7:38,0.9,10,0.9,10,1.8,10
2013/11/26 7:39,1,10,1,10,3.9,9
2013/11/26 7:40,1.1,10,1.1,10,2.6,15
2013/11/26 7:41,1.2,11,1.2,11,3.6,11
2013/11/26 7:42,1.4,11,1.4,11,6,10
2013/11/26 7:43,1.8,11,1.8,11,6.8,12
2013/11/26 7:44,2.1,12,2.1,12,5.6,14
2013/11/26 7:45,2.5,12,2.5,12,5.8,13
2013/11/26 7:46,2.6,11,2.6,11,5.1,11
2013/11/26 7:47,2.6,11,2.6,11,4.1,10
2013/11/26 7:48,2.8,12,2.8,12,4.1,9
2013/11/26 7:49,2.9,12,2.9,12,6.9,11
2013/11/26 7:50,3.1,12,3.1,12,6.2,11
2013/11/26 7:51,3.3,12,3.3,12,7.6,12
2013/11/26 7:52,3.3,12,3.4,12,6.8,12
2013/11/26 7:53,3.2,12,3.4,12,6.1,11
2013/11/26 7:54,3.3,12,3.3,12,7.9,10
2013/11/26 7:55,3.4,12,3.4,12,8.7,13
2013/11/26 7:56,3.5,12,3.5,12,6.7,11
2013/11/26 7:57,3.7,12,3.7,12,6.7,16
2013/11/26 7:58,3.7,13,3.7,12,3.9,16
2013/11/26 7:59,3.6,13,3.7,12,4.1,16
2013/11/26 8:00,3.6,13,3.6,12,5.1,12
2013/11/26 8:01,3.4,14,3.6,12,7.7,13
2013/11/26 8:02,3.5,14,3.5,12,5.7,12
2013/11/26 8:03,3.6,14,3.6,12,7,13
2013/11/26 8:04,3.4,14,3.6,12,5.8,15
2013/11/26 8:05,3.2,14,3.5,12,5.5,13
2013/11/26 8:06,3,14,3.2,12,3.6,12
2013/11/26 8:07,3,13,3.1,12,7,12
2013/11/26 8:08,3.1,13,3.1,13,5.4,12
2013/11/26 8:09,3.4,13,3.4,13,7.6,12
2013/11/26 8:10,3.4,13,3.5,14,5.2,15
2013/11/26 8:11,3.4,13,3.4,14,4.5,11
2013/11/26 8:12,3.3,13,3.4,14,5.6,12
2013/11/26 8:13,3.1,12,3.2,14,3.9,12
2013/11/26 8:14,3.2,12,3.2,14,6.5,12
2013/11/26 8:15,3.3,12,3.3,13,6.1,12
2013/11/26 8:16,3.6,12,3.6,12,8.7,12
2013/11/26 8:17,3.8,12,3.8,12,9.3,11
2013/11/26 8:18,3.9,12,3.9,12,7.6,12
2013/11/26 8:19,3.8,12,3.9,12,6.5,13
2013/11/26 8:20,3.8,12,3.8,12,4.8,14
2013/11/26 8:21,3.7,12,3.9,12,3.6,13
2013/11/26 8:22,3.7,12,3.7,12,7.5,9
2013/11/26 8:23,3.8,12,3.8,12,8.2,13
2013/11/26 8:24,3.8,13,3.8,12,6,13
2013/11/26 8:25,3.9,13,3.9,12,7,14
2013/11/26 8:26,3.6,13,3.9,12,4.1,15
2013/11/26 8:27,3.5,13,3.6,12,6.4,10
2013/11/26 8:28,3.5,13,3.5,12,6.4,12
2013/11/26 8:29,3.3,13,3.5,12,5.7,15
2013/11/26 8:30,3.4,13,3.4,12,7,12
2013/11/26 8:31,3.6,13,3.6,13,6.2,12
2013/11/26 8:32,3.7,13,3.8,13,7.1,13
2013/11/26 8:33,3.7,13,3.8,13,6.9,11
2013/11/26 8:34,3.7,12,3.7,13,7.9,13
2013/11/26 8:35,3.7,12,3.8,13,7.9,12
2013/11/26 8:36,3.6,12,3.7,13,4.1,11
2013/11/26 8:37,3.6,12,3.6,13,8.3,11
2013/11/26 8:38,3.7,12,3.7,13,9.5,9
2013/11/26 8:39,3.9,12,3.9,12,9,9
2013/11/26 8:40,3.8,12,3.9,12,4.8,12
2013/11/26 8:41,3.7,12,3.8,12,4.4,10
2013/11/26 8:42,3.7,12,3.7,12,5.4,13
2013/11/26 8:43,3.5,12,3.8,12,5.2,12
2013/11/26 8:44,3.4,11,3.6,12,6,9
2013/11/26 8:45,3.4,11,3.4,12,6.7,9
2013/11/26 8:46,3.7,11,3.7,12,9.8,13
2013/11/26 8:47,3.6,11,3.8,12,6.1,12
2013/11/26 8:48,3.5,11,3.6,12,7.8,13
2013/11/26 8:49,3.3,11,3.5,12,6.1,13
2013/11/26 8:50,3.2,11,3.3,12,4.7,14
2013/11/26 8:51,3.3,11,3.3,12,6.8,13
2013/11/26 8:52,3.3,12,3.4,12,6.8,15
2013/11/26 8:53,3.4,12,3.4,11,5,16
2013/11/26 8:54,3.5,12,3.5,11,6.9,11
2013/11/26 8:55,3.3,12,3.5,11,4.7,11
2013/11/26 8:56,3.2,12,3.3,11,5.7,13
2013/11/26 8:57,3.4,12,3.4,11,7.9,10
2013/11/26 8:58,3.3,12,3.5,11,6.2,13
2013/11/26 8:59,3.4,12,3.4,12,7.9,14
2013/11/26 9:00,3.7,12,3.7,12,8.6,14
2013/11/26 9:01,3.6,12,3.7,12,4.5,13
2013/11/26 9:02,3.6,12,3.6,12,8.4,11
2013/11/26 9:03,3.6,12,3.6,12,4.3,12
2013/11/26 9:04,3.6,12,3.6,12,6.4,14
2013/11/26 9:05,3.6,12,3.6,12,3.8,10
2013/11/26 9:06,3.5,12,3.6,12,6.5,11
2013/11/26 9:07,3.3,12,3.5,12,7,15
2013/11/26 9:08,3.3,12,3.4,12,6.2,16
2013/11/26 9:09,3.2,12,3.3,12,4.9,12
2013/11/26 9:10,3.2,12,3.2,12,8.4,14
2013/11/26 9:11,3.2,12,3.2,12,5.2,13
2013/11/26 9:12,3.1,12,3.2,12,5,12
2013/11/26 9:13,3.1,12,3.1,12,5.6,11
2013/11/26 9:14,3.4,12,3.4,12,12.8,12
2013/11/26 9:15,3.7,12,3.7,12,9,13
2013/11/26 9:16,3.6,12,3.7,12,3.9,13
2013/11/26 9:17,3.6,12,3.6,12,7.6,13
2013/11/26 9:18,3.8,12,3.8,12,6.9,11
2013/11/26 9:19,3.8,12,3.9,12,7.1,11
2013/11/26 9:20,3.7,12,3.7,12,9.9,10
2013/11/26 9:21,4.3,12,4.3,12,11,13
2013/11/26 9:22,4.6,12,4.6,12,12.3,12
2013/11/26 9:23,4.7,12,4.7,12,7.9,13
2013/11/26 9:24,4.4,12,4.7,12,7,11
2013/11/26 9:25,4.3,12,4.3,12,7.6,12
2013/11/26 9:26,4.7,12,4.7,12,9.8,12
2013/11/26 9:27,4.8,12,4.9,12,9.9,12
2013/11/26 9:28,4.8,12,4.8,12,8.2,11
2013/11/26 9:29,5.1,12,5.1,12,8.6,13
2013/11/26 9:30,5.2,12,5.3,12,10.1,12
2013/11/26 9:31,4.9,12,5.2,12,8.3,12
2013/11/26 9:32,4.6,12,4.8,12,6.4,15
2013/11/26 9:33,4.3,12,4.6,12,2,9
2013/11/26 9:34,4.4,12,4.4,12,7.4,12
2013/11/26 9:35,4.4,12,4.5,12,6.8,9
2013/11/26 9:36,4.3,12,4.4,12,10.9,10
2013/11/26 9:37,4.5,12,4.5,12,10.1,11
2013/11/26 9:38,4.6,12,4.7,12,8.4,12
2013/11/26 9:39,4.6,12,4.6,12,10.5,10
2013/11/26 9:40,4.4,11,4.6,12,6.8,11
2013/11/26 9:41,4.2,11,4.4,12,9.1,12
2013/11/26 9:42,4.4,11,4.4,12,6.7,12
2013/11/26 9:43,4.5,11,4.5,12,3.9,12
2013/11/26 9:44,4.3,11,4.5,12,6.2,10
2013/11/26 9:45,4.3,11,4.4,12,8.4,10
2013/11/26 9:46,4.4,11,4.5,12,10.5,11
2013/11/26 9:47,4.1,11,4.4,12,7.5,11
2013/11/26 9:48,4,11,4.1,12,8.1,11
2013/11/26 9:49,3.9,11,4,12,7.9,11
2013/11/26 9:50,4.1,11,4.1,11,9.7,10
2013/11/26 9:51,4,11,4.1,11,6.4,10
2013/11/26 9:52,4,11,4,11,7,11
2013/11/26 9:53,4.1,11,4.1,11,8.2,10
2013/11/26 9:54,4.2,11,4.2,11,7.2,11
2013/11/26 9:55,4,11,4.2,11,6.9,11
2013/11/26 9:56,3.8,11,4,11,5,11
2013/11/26 9:57,3.9,11,3.9,11,10.7,12
2013/11/26 9:58,3.9,11,3.9,11,7.4,12
2013/11/26 9:59,3.8,11,3.9,11,7.4,10
2013/11/26 10:00,3.9,11,3.9,11,13.3,10
2013/11/26 10:01,4.3,11,4.3,11,9.5,9
2013/11/26 10:02,4.5,11,4.5,11,11,10
2013/11/26 10:03,4.8,11,4.8,11,9.8,14
2013/11/26 10:04,4.7,11,4.8,11,8.6,10
2013/11/26 10:05,5,11,5,11,7.9,13
2013/11/26 10:06,5.3,11,5.3,11,10,13
2013/11/26 10:07,5.3,11,5.3,11,10.8,12
2013/11/26 10:08,5.3,11,5.4,11,6.4,13
2013/11/26 10:09,5.3,11,5.4,11,5,12
2013/11/26 10:10,5,11,5.2,11,7.1,12
2013/11/26 10:11,4.7,12,4.9,11,6.4,9
2013/11/26 10:12,4.6,12,4.7,11,8.7,11
2013/11/26 10:13,4.4,11,4.6,11,10,9
2013/11/26 10:14,4.2,11,4.4,11,5.7,12
2013/11/26 10:15,3.9,12,4.2,11,7.1,9
2013/11/26 10:16,3.9,12,4,11,9.2,10
2013/11/26 10:17,3.9,11,4,11,11.9,10
2013/11/26 10:18,3.9,11,4,11,7.5,11
2013/11/26 10:19,4.1,11,4.1,11,7.5,12
2013/11/26 10:20,4,11,4.1,11,4.8,10
2013/11/26 10:21,4.1,11,4.1,12,9,9
2013/11/26 10:22,4.3,11,4.3,12,8.9,11
2013/11/26 10:23,4.1,11,4.2,11,8.6,8
2013/11/26 10:24,4.4,11,4.4,11,9.2,12
2013/11/26 10:25,4.6,11,4.6,11,8.4,8
2013/11/26 10:26,4.3,11,4.5,11,6.4,11
2013/11/26 10:27,4,11,4.2,11,7.2,9
2013/11/26 10:28,4.2,11,4.2,11,8.3,10
2013/11/26 10:29,4.1,11,4.2,11,7.1,12
2013/11/26 10:30,4.2,11,4.2,11,7.4,9
2013/11/26 10:31,4.4,11,4.4,11,14,10
2013/11/26 10:32,4.2,11,4.4,11,9.3,11
2013/11/26 10:33,4.4,11,4.4,11,11,11
2013/11/26 10:34,4.3,11,4.4,11,11.3,9
2013/11/26 10:35,4.4,11,4.4,11,6.7,9
2013/11/26 10:36,4.6,11,4.6,11,7.7,11
2013/11/26 10:37,4.9,11,4.9,11,9.4,12
2013/11/26 10:38,4.7,11,4.9,11,7.5,10
2013/11/26 10:39,5.1,10,5.1,10,15.3,10